Hourly Weather Roundup
Issued by NWS Central Illinois

Home | Current Version | Previous Version | Text Only | Print | Product List | Glossary On
Versions: 1 2 3 4 5 6 7 8 9 10 11 12 13 14 15 16 17 18 19 20 21 22 23 24 25 26 27 28 29 30 31 32 33 34 35 36 37 38 39 40 41 42 43 44 45 46 47 48 49 50
000
NZUS43 KILX 301410
HWRILX

AREA WEATHER ROUNDUP
NATIONAL WEATHER SERVICE, LINCOLN IL
900 AM CDT SAT MAY 30 2015


CITY           SKY/WX    TMP DP  RH WIND       PRES   REMARKS
BLOOMINGTON    CLOUDY    68  67  96 SE8       30.00F
CHAMPAIGN      CLOUDY    69  65  86 NE10      29.99F
DANVILLE       CLOUDY    68  67  95 SE6       29.98S
DECATUR        CLOUDY    71  67  87 E9        29.97F
EFFINGHAM      CLOUDY    73  68  84 SE6       30.00R
FLORA          SUNNY     74  69  82 S13       30.00R
GALESBURG      LGT RAIN  65  64  96 S3        29.99R
JACKSONVILLE   CLOUDY    69  66  90 CALM      29.97S
LACON          DRIZZLE   66  62  87 CALM      29.98S
LAWRENCEVILLE  CLOUDY    78  67  68 S15       30.01R HX  80
LITCHFIELD     CLOUDY    67  65  93 CALM      29.98R
$$


CITY           SKY/WX    TMP DP  RH WIND       PRES   REMARKS
LINCOLN        CLOUDY    69  67  92 E3        29.96R
MACOMB         LGT RAIN  66  65  97 CALM      30.00S
MATTOON        CLOUDY    73  68  84 S8        29.98S
MT CARMEL AP   CLOUDY    79  66  65 S13       30.01R HX  81
OLNEY-NOBLE AP CLOUDY    75  70  83 S8G16     30.00R
PARIS          PTSUNNY   77  69  75 S13       30.00S
PEORIA         LGT RAIN  69  65  86 CALM      29.98S
PONTIAC        LGT RAIN  68  67  94 CALM      30.01R
RANTOUL        LGT RAIN  67  66  95 NE8       30.00S
ROBINSON       CLOUDY    76  67  75 S8        30.01S
SPRINGFIELD    LGT RAIN  70  66  87 E7        29.97S
TAYLORVILLE    CLOUDY    68  66  94 E6        29.97S
$$

...REGIONAL REPORTS...


CITY           SKY/WX    TMP DP  RH WIND       PRES   REMARKS
CHICAGO O`HARE CLOUDY    67  64  90 SW3       29.98R
KANKAKEE       DRIZZLE   66  65  96 S3        30.02R
MOLINE         LGT RAIN  67  64  90 VRB3      29.97R FOG
MOUNT VERNON   PTSUNNY   73  68  83 S7        29.99S
PITTSFIELD     DRIZZLE   67  65  92 CALM      29.99R
QUINCY         LGT RAIN  67  65  93 NW3       29.98R
ROCKFORD       LGT RAIN  67  64  90 SW6       29.99R
$$


CITY           SKY/WX    TMP DP  RH WIND       PRES   REMARKS
BURLINGTON     LGT RAIN  67  66  97 SW8       29.97S
CEDAR RAPIDS   CLOUDY    63  60  90 N16G24    29.99R
DES MOINES     CLOUDY    57  53  86 N14       30.07R
KIRKSVILLE     CLOUDY    62  61  96 N8        30.03R
OTTUMWA        CLOUDY    60  58  92 NW12      30.02R
ST LOUIS       LGT RAIN  71  67  87 E3        29.97R FOG
$$


CITY           SKY/WX    TMP DP  RH WIND       PRES   REMARKS
TERRE HAUTE    PTSUNNY   77  70  79 SW12      30.00S
EVANSVILLE     MOSUNNY   77  68  73 S13       30.02R
INDIANAPOLIS   PTSUNNY   77  67  71 S13       30.01F
LAFAYETTE      CLOUDY    69  67  93 CALM      30.01S
MADISON        LGT RAIN  57  55  93 NE17G32   30.00R FOG
MILWAUKEE      LGT RAIN  51  48  89 NE16G22   30.03R
$$





USA.gov is the U.S. government's official web portal to all federal, state and local government web resources and services.